Location: Unspecified
(22.6800°N, 112.2000°E)
Time: 20:49:24
(UTC+08:00)

Altair - All Passes

Search period start: 04 August 2021 00:00
Search period end: 14 August 2021 00:00
Orbit: 1502 x 1682 km, 47.2° (Epoch: 03 August)

Date Brightness Start Highest point End Pass type
(mag) Time Alt. Az. Time Alt. Az. Time Alt. Az.
04 Aug - 00:42:37 10° WSW 00:52:02 54° NW 01:01:09 10° NE visible
04 Aug - 02:52:30 10° WNW 02:58:38 19° NNW 03:04:42 10° NNE visible
04 Aug - 05:02:38 10° NNW 05:07:19 15° N 05:11:59 10° NE visible
04 Aug - 07:06:43 10° NNW 07:14:51 34° NNE 07:23:02 10° E daylight
04 Aug - 09:10:49 10° NW 09:19:53 68° SW 09:29:10 10° SSE daylight
04 Aug - 11:21:02 10° WSW 11:23:47 12° SW 11:26:33 10° SW daylight
04 Aug - 22:13:38 10° S 22:22:22 36° SE 22:30:47 10° ENE visible
05 Aug - 00:17:14 10° WSW 00:26:48 59° NW 00:36:03 10° NE visible
05 Aug - 02:26:45 10° WNW 02:33:14 20° NNW 02:39:36 10° NNE visible
05 Aug - 04:37:20 10° NNW 04:41:51 14° N 04:46:21 10° NE visible
05 Aug - 06:41:38 10° NNW 06:49:34 32° NNE 06:57:32 10° E daylight
05 Aug - 08:45:37 10° NW 08:54:45 75° SW 09:04:04 10° SE daylight
05 Aug - 10:54:30 10° W 10:58:40 14° SW 11:02:54 10° SSW daylight
05 Aug - 21:48:47 10° S 21:57:13 32° SE 22:05:22 10° ENE night (unlit)
05 Aug - 23:51:54 10° WSW 00:01:35 65° NW 00:10:57 10° NE visible
06 Aug - 02:01:02 10° WNW 02:07:50 21° NNW 02:14:31 10° NNE visible
06 Aug - 04:11:58 10° NNW 04:16:23 14° N 04:20:45 10° NE visible
06 Aug - 06:16:33 10° NNW 06:24:17 29° NNE 06:31:59 10° E daylight
06 Aug - 08:20:26 10° NW 08:29:36 82° SW 08:38:57 10° SE daylight
06 Aug - 10:28:25 10° W 10:33:33 16° SW 10:38:45 10° SSW daylight
06 Aug - 21:23:59 10° S 21:32:05 29° SE 21:39:55 10° ENE visible
06 Aug - 23:26:35 10° SW 23:36:23 71° NW 23:45:49 10° NE visible
07 Aug - 01:35:20 10° WNW 01:42:27 23° NNW 01:49:25 10° NNE visible
07 Aug - 03:46:33 10° NNW 03:50:54 14° N 03:55:12 10° NNE visible
07 Aug - 05:51:27 10° NNW 05:58:57 27° NNE 06:06:25 10° E daylight
07 Aug - 07:55:16 10° NW 08:04:28 90° SW 08:13:48 10° SE daylight
07 Aug - 10:02:35 10° W 10:08:26 19° SW 10:14:24 10° SSW daylight
07 Aug - 20:59:15 10° S 21:06:57 26° SE 21:14:24 10° ENE visible
07 Aug - 23:01:19 10° SW 23:11:11 77° NW 23:20:42 10° NE visible
08 Aug - 01:09:39 10° WNW 01:17:05 24° NNW 01:24:21 10° NNE visible
08 Aug - 03:21:05 10° NNW 03:25:25 14° N 03:29:43 10° NNE visible
08 Aug - 05:26:22 10° NNW 05:33:37 25° NNE 05:40:50 10° E visible
08 Aug - 07:30:06 10° NW 07:39:18 83° NE 07:48:37 10° SE daylight
08 Aug - 09:36:53 10° W 09:43:20 21° SW 09:49:54 10° S daylight
08 Aug - 20:34:36 10° S 20:41:47 23° SE 20:48:48 10° E visible
08 Aug - 22:36:03 10° SW 22:45:59 84° NW 22:55:33 10° NE visible
09 Aug - 00:43:59 10° W 00:51:44 26° NNW 00:59:16 10° NNE visible
09 Aug - 02:55:32 10° NNW 02:59:56 14° N 03:04:16 10° NNE visible
09 Aug - 05:01:16 10° NNW 05:08:17 23° NNE 05:15:15 10° ENE visible
09 Aug - 07:04:57 10° NW 07:14:08 76° NE 07:23:24 10° SE daylight
09 Aug - 09:11:17 10° WNW 09:18:13 24° SW 09:25:18 10° S daylight
09 Aug - 20:10:03 10° SSE 20:16:39 20° SE 20:23:06 10° E visible
09 Aug - 22:10:50 10° SW 22:20:48 89° SE 22:30:24 10° NE visible
10 Aug - 00:18:21 10° W 00:26:23 28° NNW 00:34:12 10° NNE visible
10 Aug - 02:29:57 10° NNW 02:34:26 14° N 02:38:53 10° NNE visible
10 Aug - 04:36:09 10° NNW 04:42:56 22° NNE 04:49:37 10° ENE visible
10 Aug - 06:39:49 10° NW 06:48:59 69° NE 06:58:09 10° SE daylight
10 Aug - 08:45:45 10° WNW 08:53:06 28° SW 09:00:36 10° S daylight
10 Aug - 19:45:37 10° SSE 19:51:31 17° SE 19:57:17 10° E visible
10 Aug - 21:45:38 10° SW 21:55:37 82° SE 22:05:13 10° NE visible
10 Aug - 23:52:45 10° W 00:01:03 31° NNW 00:09:08 10° NNE visible
11 Aug - 02:04:18 10° NW 02:08:57 14° N 02:13:33 10° NNE visible
11 Aug - 04:11:02 10° NNW 04:17:32 21° NNE 04:23:59 10° ENE visible
11 Aug - 06:14:42 10° NW 06:23:47 63° NE 06:32:53 10° ESE daylight
11 Aug - 08:20:18 10° WNW 08:28:00 31° SW 08:35:51 10° S daylight
11 Aug - 19:21:23 10° SSE 19:26:22 15° SE 19:31:16 10° E visible
11 Aug - 21:20:28 10° SW 21:30:26 75° SE 21:40:02 10° NE visible
11 Aug - 23:27:09 10° W 23:35:44 33° NNW 23:44:03 10° NNE visible
12 Aug - 01:38:37 10° NW 01:43:29 15° N 01:48:16 10° NNE visible
12 Aug - 03:45:54 10° NNW 03:52:09 19° NNE 03:58:20 10° ENE visible
12 Aug - 05:49:34 10° NW 05:58:36 58° NE 06:07:35 10° ESE daylight
12 Aug - 07:54:53 10° WNW 08:02:54 35° SW 08:11:03 10° S daylight
12 Aug - 18:57:28 10° SSE 19:01:13 13° SE 19:04:55 10° ESE daylight
12 Aug - 20:55:20 10° SSW 21:05:15 68° SE 21:14:49 10° NE visible
12 Aug - 23:01:36 10° W 23:10:25 36° NW 23:18:59 10° NNE visible
13 Aug - 01:12:54 10° NW 01:18:00 15° N 01:23:01 10° NNE visible
13 Aug - 03:20:44 10° NNW 03:26:44 18° NNE 03:32:40 10° ENE visible
13 Aug - 05:24:27 10° NW 05:33:23 52° NE 05:42:16 10° ESE visible
13 Aug - 07:29:31 10° WNW 07:37:48 40° SW 07:46:11 10° SSE daylight
13 Aug - 18:34:34 10° SE 18:36:04 10° SE 18:37:34 10° ESE daylight
13 Aug - 20:30:15 10° SSW 20:40:05 62° SE 20:49:35 10° NE visible
13 Aug - 22:36:04 10° WSW 22:45:07 39° NW 22:53:54 10° NNE visible
